Weather History for Panama City, FL

Change the Weather History Date:

Wednesday, August 21, 2013

  Actual Average Record
Temperature  
Mean Temperature 82 °F -  
Max Temperature 92 °F - 95 °F (2014)
Min Temperature 71 °F - 71 °F (2012)
Degree Days  
Heating Degree Days 0    
Cooling Degree Days 17    
Growing Degree Days 31 (Base 50)    
Moisture  
Dew Point 72 °F    
Average Humidity 80    
Maximum Humidity 100    
Minimum Humidity 59    
Precipitation  
Precipitation 0.22 in - 0.51 in (2014)
Month to date precipitation  
Year to date precipitation  
Sea Level Pressure  
Sea Level Pressure 30.12 in    
Wind  
Wind Speed 4 mph (ENE)    
Max Wind Speed 24 mph    
Max Gust Speed 30 mph    
Visibility 9 miles    
Events Rain , Thunderstorm , Tornado    
T = Trace of Precipitation, MM = Missing Value Source: NWS Daily Summary

Daily Weather History Graph

Daily Weather History Graph

Search for Another Location

Airport:

Trip Planner

Search our weather history database for the weather conditions in past years. The results will help you decide how hot, cold, wet, or windy it might be!

Date:

Astronomy

Aug. 21, 2013 Rise Set
Actual Time 7:13 AM EDT 8:18 PM EDT
Civil Twilight 6:48 AM EDT 8:43 PM EDT
Nautical Twilight 6:19 AM EDT 9:12 PM EDT
Astronomical Twilight 5:48 AM EDT 9:42 PM EDT
Moon 8:35 PM EDT (8/21) 7:46 AM EDT (8/21)
Length of Visible Light 13h 54m
Length of Day
13h 04m
Full, 100% of the Moon is Illuminated
Aug 21
Full
Aug 28
Last Quarter
Sep 5
New
Sep 12
First Quarter
Sep 19
Full

Hourly Weather History & Observations

Time (EDT) Temp. Heat Index Dew Point Humidity Pressure Visibility Wind Dir Wind Speed Gust Speed Precip Events Conditions
12:53 AM 73.0 °F - 71.1 °F 93% 30.14 in 10.0 mi North 3.5 mph - N/A   Partly Cloudy
1:53 AM 73.0 °F - 71.1 °F 93% 30.13 in 3.0 mi NNW 4.6 mph - N/A   Mostly Cloudy
1:58 AM 73.4 °F - 71.6 °F 94% 30.10 in 1.8 mi NNW 3.5 mph - N/A   Mostly Cloudy
2:12 AM 73.4 °F - 71.6 °F 94% 30.10 in 3.0 mi NNE 3.5 mph - N/A   Overcast
2:51 AM 71.6 °F - 71.6 °F 100% 30.09 in 10.0 mi Calm Calm - N/A   Scattered Clouds
2:53 AM 72.0 °F - 71.1 °F 97% 30.12 in 10.0 mi Calm Calm - N/A   Partly Cloudy
3:53 AM 72.0 °F - 70.0 °F 93% 30.12 in 10.0 mi North 3.5 mph - N/A   Clear
4:53 AM 72.0 °F - 70.0 °F 93% 30.12 in 10.0 mi Calm Calm - N/A   Clear
5:53 AM 72.0 °F - 70.0 °F 93% 30.12 in 10.0 mi Calm Calm - N/A   Clear
6:53 AM 72.0 °F - 70.0 °F 93% 30.12 in 10.0 mi ENE 6.9 mph - N/A   Clear
7:53 AM 72.0 °F - 70.0 °F 93% 30.14 in 10.0 mi NE 4.6 mph - N/A   Partly Cloudy
8:53 AM 75.0 °F - 72.0 °F 90% 30.16 in 10.0 mi ENE 9.2 mph - N/A   Clear
9:53 AM 80.1 °F 84.2 °F 73.0 °F 79% 30.16 in 10.0 mi ENE 6.9 mph - N/A   Clear
10:53 AM 84.0 °F 91.9 °F 75.0 °F 74% 30.17 in 10.0 mi East 5.8 mph - N/A   Clear
11:53 AM 88.0 °F 96.5 °F 73.9 °F 63% 30.17 in 10.0 mi SSE 5.8 mph - N/A   Scattered Clouds
12:53 PM 89.1 °F 99.1 °F 75.0 °F 63% 30.16 in 10.0 mi Calm Calm - N/A   Scattered Clouds
1:53 PM 90.0 °F 99.0 °F 73.9 °F 59% 30.13 in 10.0 mi Calm Calm - N/A   Mostly Cloudy
2:05 PM 91.4 °F 102.5 °F 75.2 °F 59% 30.09 in 10.0 mi South 4.6 mph - N/A Tornado Funnel Cloud
2:10 PM 89.6 °F 98.2 °F 73.4 °F 59% 30.09 in 10.0 mi SSW 3.5 mph - N/A   Scattered Clouds
2:15 PM 87.8 °F 95.6 °F 73.4 °F 62% 30.09 in 10.0 mi South 5.8 mph - N/A Thunderstorm Thunderstorm
2:21 PM 87.8 °F 95.6 °F 73.4 °F 62% 30.09 in 10.0 mi South 6.9 mph - N/A Thunderstorm , Tornado Funnel Cloud
2:22 PM 87.8 °F 95.6 °F 73.4 °F 62% 30.09 in 10.0 mi South 6.9 mph - N/A Thunderstorm Thunderstorm
2:46 PM 80.6 °F 85.4 °F 73.4 °F 79% 30.10 in 1.8 mi South 23.0 mph 29.9 mph 0.16 in Rain , Thunderstorm Thunderstorms and Rain
2:53 PM 78.1 °F - 72.0 °F 81% 30.12 in 5.0 mi South 9.2 mph 29.9 mph 0.22 in Rain Light Rain
3:53 PM 78.1 °F - 73.9 °F 87% 30.13 in 10.0 mi South 3.5 mph - 0.00 in   Mostly Cloudy
4:53 PM 79.0 °F - 73.0 °F 82% 30.12 in 10.0 mi NE 4.6 mph - 0.00 in   Clear
5:53 PM 78.1 °F - 72.0 °F 81% 30.12 in 10.0 mi Variable 4.6 mph - N/A   Clear
6:53 PM 77.0 °F - 71.1 °F 82% 30.11 in 10.0 mi North 6.9 mph - N/A   Clear
7:53 PM 75.9 °F - 72.0 °F 87% 30.12 in 10.0 mi NE 8.1 mph - N/A   Clear
8:53 PM 75.0 °F - 71.1 °F 87% 30.13 in 10.0 mi NNE 4.6 mph - N/A   Scattered Clouds
9:53 PM 73.9 °F - 70.0 °F 87% 30.14 in 10.0 mi Calm Calm - N/A   Scattered Clouds
10:53 PM 73.9 °F - 70.0 °F 87% 30.15 in 10.0 mi NNE 5.8 mph - N/A   Scattered Clouds
11:53 PM 73.0 °F - 71.1 °F 93% 30.14 in 10.0 mi Calm Calm - N/A   Clear